Content
SEND FEEDBACK

Daily
Averages
Monthly
Summary
United States of America

ANN ARBOR, MICHIGAN


Home > North America > United States > Michigan
Elevation: 759 feet     Latitude: 42 17N     Longitude: 083 43W

WEATHER
 
SELECT A DAY
Number of Records: 209,163;   Date Range: 1/1/95 - 12/26/14
 
SHARE

PRINT THIS DATA

[ ← Previous Day ]
WEATHER ALMANAC - MARCH 25, 2013
[ Next Day → ]
[ °C ]   °F
Weather ElementAverageHighLow
Temperature34.5 °F39.9 °F (3:53 pm)30 °F (6:53 am)
Dewpoint23.8 °F27 °F (10:53 pm)21 °F (1:53 am)
Humidity65.5 %80 % (7:02 am)51 % (5:53 pm)
Barometer29.67 in29.92 in (11:53 pm)29.55 in (7:02 am)
Wind Speed13.2 mph18.4 mph (12:53 pm)
Wind Gust25.3 mph (2:53 am)
Weather ElementAverage
Visibility9.3 mi
Wind DirectionESE (100 °)

Weather ElementTotal
Precipitation---
Heating Degree Days30.1 (Base 65)
Averaged from 29 records on March 25, 2013
WEATHER CONDITIONS BREAKOUT
WIND DIRECTION BREAKOUT
WEATHER BY HOUR - MARCH 25, 2013
[ °C ]   °F
Local TimeTemperatureDewpointHumidityBarometerVisibilityWind DirectionWind SpeedGust SpeedPrecipitationEventsConditions
1:53 AM32.0 °F21.0 °F64 %29.62 in10.0 miNE (50°)16.1 mph24.2 mphOvercast
2:22 AM32.0 °F21.2 °F64 %29.58 in5.0 miNE (40°)10.4 mph24.2 mph0.00 inSnowLight Snow
2:53 AM32.0 °F21.9 °F66 %29.60 in7.0 miNE (40°)16.1 mph25.3 mph0.00 inSnowLight Snow
3:01 AM32.0 °F21.2 °F64 %29.57 in7.0 miNE (50°)12.7 mph0.00 inSnowLight Snow
3:11 AM32.0 °F23.0 °F69 %29.57 in5.0 miNE (40°)16.1 mph24.2 mph0.00 inSnowLight Snow
3:37 AM30.2 °F23.0 °F75 %29.56 in10.0 miNNE (30°)15.0 mph21.9 mph0.00 inMostly Cloudy
3:53 AM30.9 °F23.0 °F72 %29.58 in10.0 miNE (40°)16.1 mph21.9 mph0.00 inMostly Cloudy
4:53 AM32.0 °F21.9 °F66 %29.57 in10.0 miNE (50°)13.8 mph21.9 mphOvercast
5:53 AM32.0 °F23.0 °F69 %29.57 in10.0 miNE (40°)12.7 mph18.4 mphMostly Cloudy
6:53 AM30.0 °F24.1 °F79 %29.57 in9.0 miNE (50°)12.7 mph0.00 inSnowLight Snow
7:02 AM30.2 °F24.8 °F80 %29.55 in9.0 miNE (40°)10.4 mph0.00 inOvercast
7:53 AM30.9 °F24.1 °F76 %29.59 in9.0 miNE (40°)15.0 mph24.2 mph0.00 inOvercast
8:53 AM32.0 °F24.1 °F73 %29.60 in10.0 miNE (40°)11.5 mph19.6 mph0.00 inOvercast
9:53 AM33.1 °F24.1 °F70 %29.62 in10.0 miNNE (30°)16.1 mphOvercast
10:53 AM34.0 °F23.0 °F64 %29.64 in10.0 miNNE (30°)15.0 mphOvercast
11:53 AM36.0 °F24.1 °F62 %29.65 in10.0 miNNE (30°)10.4 mph20.7 mphOvercast
12:31 PM35.6 °F23.0 °F60 %29.63 in10.0 miNNE (30°)16.1 mph23.0 mphOvercast
12:53 PM37.0 °F23.0 °F57 %29.66 in10.0 miNorth (10°)18.4 mph25.3 mphOvercast
1:53 PM37.9 °F24.1 °F57 %29.67 in10.0 miNNE (20°)12.7 mph19.6 mphOvercast
2:53 PM39.0 °F24.1 °F55 %29.68 in10.0 miNE (40°)12.7 mph21.9 mphOvercast
3:53 PM39.9 °F25.0 °F55 %29.70 in10.0 miNorth (10°)12.7 mph21.9 mph0.00 inOvercast
4:53 PM39.9 °F24.1 °F53 %29.72 in10.0 miNorth (10°)17.3 mph25.3 mphOvercast
5:53 PM39.9 °F23.0 °F51 %29.75 in10.0 miNNE (30°)15.0 mph23.0 mphOvercast
6:53 PM37.9 °F26.1 °F62 %29.79 in10.0 miNorth (350°)10.4 mph20.7 mphOvercast
7:53 PM37.0 °F26.1 °F65 %29.83 in10.0 miNorth (360°)12.7 mph19.6 mphOvercast
8:53 PM36.0 °F26.1 °F67 %29.87 in10.0 miNorth (350°)9.2 mphOvercast
9:53 PM36.0 °F26.1 °F67 %29.90 in10.0 miNorth (360°)8.1 mphOvercast
10:53 PM36.0 °F27.0 °F70 %29.91 in10.0 miNorth (350°)8.1 mphOvercast
11:53 PM36.0 °F26.1 °F67 %29.92 in10.0 miNNW (340°)10.4 mphOvercast
Hourly data recorded from KARB, located miles away from Ann Arbor, Michigan







STORIES FROM OUR PARTNERS